Weather History for PAEN - November, 2011

Change the Weather History Date:

Thursday, November 24, 2011

  Actual Average Record
Temperature  
Mean Temperature 6 °F -  
Max Temperature 12 °F 25 °F 42 °F (1992)
Min Temperature 1 °F 12 °F -20 °F (1963)
Degree Days  
Heating Degree Days 58    
Moisture  
Dew Point 6 °F    
Average Humidity 87    
Maximum Humidity 92    
Minimum Humidity 79    
Precipitation  
Precipitation 0.02 in - - ()
Sea Level Pressure  
Sea Level Pressure 29.16 in    
Wind  
Wind Speed 6 mph (NE)    
Max Wind Speed 9 mph    
Max Gust Speed -    
Visibility 5 miles    
Events Snow    
Averages and records for this station are not official NWS values.
T = Trace of Precipitation, MM = Missing Value Source: NWS Daily Summary

Daily Weather History Graph

Daily Weather History Graph

Search for Another Location

Airport or City:

Trip Planner

Search our weather history database for the weather conditions in past years. The results will help you decide how hot, cold, wet, or windy it might be!

Date:

Astronomy

Nov. 24, 2011 Rise Set
Actual Time 9:29 AM AKST 4:13 PM AKST
Civil Twilight 8:35 AM AKST 5:07 PM AKST
Nautical Twilight 7:40 AM AKST 6:01 PM AKST
Astronomical Twilight 6:50 AM AKST 6:52 PM AKST
Moon 9:10 AM AKST (11/24) 3:39 PM AKST (11/24)
Length of Visible Light 8h 31m
Length of Day
6h 44m
Waning Crescent, 0% of the Moon is Illuminated
Nov 24
Waning Crescent
Nov 24
New
Dec 2
First Quarter
Dec 10
Full
Dec 17
Last Quarter

Hourly Weather History & Observations

Time (AKST) Temp. Windchill Dew Point Humidity Pressure Visibility Wind Dir Wind Speed Gust Speed Precip Events Conditions
12:53 AM 6.1 °F -6.8 °F 1.0 °F 80% 29.11 in 10.0 mi NE 8.1 mph - N/A   Overcast
1:53 AM 6.1 °F -2.8 °F 1.0 °F 80% 29.11 in 10.0 mi NE 4.6 mph - N/A   Overcast
3:53 AM 8.6 °F -3.7 °F 3.2 °F 79% 29.10 in 10.0 mi NE 8.1 mph - N/A   Overcast
4:53 AM 8.1 °F -4.3 °F 3.9 °F 83% 29.11 in 9.0 mi NE 8.1 mph - N/A   Overcast
5:53 AM 9.0 °F -3.2 °F 6.1 °F 88% 29.11 in 5.0 mi NE 8.1 mph - 0.00 in Snow Light Snow
6:53 AM 9.0 °F -2.2 °F 6.1 °F 88% 29.11 in 4.0 mi ENE 6.9 mph - 0.00 in Snow Light Snow
7:22 AM 8.6 °F -1.3 °F 6.8 °F 92% 29.10 in 2.5 mi ENE 5.8 mph - 0.00 in Snow Light Snow
7:53 AM 10.0 °F -1.9 °F 6.1 °F 84% 29.11 in 6.0 mi ENE 8.1 mph - 0.00 in   Overcast
8:53 AM 10.0 °F 0.4 °F 7.0 °F 87% 29.13 in 2.0 mi ENE 5.8 mph - 0.01 in Snow Light Snow
9:05 AM 10.4 °F 0.8 °F 6.8 °F 85% 29.11 in 1.8 mi NE 5.8 mph - 0.00 in Snow Light Snow
9:53 AM 10.0 °F 0.4 °F 7.0 °F 87% 29.13 in 1.5 mi NE 5.8 mph - 0.00 in Snow Light Snow
10:25 AM 10.4 °F -0.4 °F 6.8 °F 85% 29.12 in 2.0 mi NNE 6.9 mph - 0.00 in Snow Light Snow
10:53 AM 10.0 °F -0.9 °F 7.0 °F 87% 29.13 in 2.0 mi NNE 6.9 mph - 0.00 in Snow Light Snow
11:01 AM 10.4 °F 0.8 °F 6.8 °F 85% 29.12 in 1.5 mi NE 5.8 mph - 0.00 in Snow Light Snow
11:15 AM 10.4 °F 0.8 °F 6.8 °F 85% 29.13 in 1.5 mi NE 5.8 mph - 0.00 in Snow Light Snow
11:30 AM 10.4 °F 0.8 °F 6.8 °F 85% 29.13 in 1.8 mi NNE 5.8 mph - 0.00 in Snow Light Snow
11:53 AM 10.9 °F 1.4 °F 7.0 °F 84% 29.14 in 2.0 mi NE 5.8 mph - 0.00 in Snow Light Snow
12:25 PM 10.4 °F -2.4 °F 8.6 °F 92% 29.13 in 1.5 mi NNE 9.2 mph - 0.00 in Snow Light Snow
12:53 PM 12.0 °F 0.5 °F 8.1 °F 84% 29.15 in 1.2 mi ENE 8.1 mph - 0.01 in Snow Light Snow
1:45 PM 12.2 °F 1.7 °F 8.6 °F 85% 29.14 in 3.0 mi NE 6.9 mph - 0.00 in Snow Light Snow
1:53 PM 12.0 °F 1.5 °F 8.1 °F 84% 29.15 in 3.0 mi NE 6.9 mph - 0.00 in   Overcast
2:46 PM 12.2 °F 1.7 °F 8.6 °F 85% 29.14 in 2.0 mi NE 6.9 mph - 0.00 in Snow Light Snow
2:53 PM 12.0 °F 2.7 °F 8.1 °F 84% 29.16 in 2.5 mi NE 5.8 mph - 0.00 in Snow Light Snow
3:53 PM 12.0 °F -0.4 °F 8.1 °F 84% 29.16 in 2.0 mi NE 9.2 mph - 0.00 in Snow Light Snow
4:09 PM 10.4 °F -2.4 °F 8.6 °F 92% 29.15 in 4.0 mi ENE 9.2 mph - 0.00 in Snow Light Snow
4:53 PM 9.0 °F 0.6 °F 6.1 °F 88% 29.18 in 6.0 mi North 4.6 mph - 0.00 in   Overcast
5:00 PM 8.6 °F 0.1 °F 6.8 °F 92% 29.17 in 6.0 mi North 4.6 mph - N/A   Overcast
5:41 PM 8.6 °F -1.3 °F 6.8 °F 92% 29.17 in 2.5 mi ENE 5.8 mph - 0.00 in Snow Light Snow
5:45 PM 8.6 °F -1.3 °F 6.8 °F 92% 29.17 in 3.0 mi NE 5.8 mph - 0.00 in Snow Light Snow
5:53 PM 8.1 °F -2.0 °F 6.1 °F 92% 29.18 in 4.0 mi ENE 5.8 mph - 0.00 in Snow Light Snow
6:53 PM 8.1 °F 1.4 °F 6.1 °F 92% 29.20 in 8.0 mi ENE 3.5 mph - 0.00 in   Overcast
7:10 PM 6.8 °F -0.1 °F 3.2 °F 85% 29.20 in 7.0 mi North 3.5 mph - N/A   Overcast
7:53 PM 7.0 °F - 3.9 °F 87% 29.22 in 6.0 mi Calm Calm - 0.00 in Snow Light Snow
8:07 PM 6.8 °F - 5.0 °F 92% 29.22 in 8.0 mi Calm Calm - 0.00 in Snow Light Snow
8:53 PM 5.0 °F - 3.0 °F 92% 29.24 in 5.0 mi Calm Calm - 0.00 in Snow Light Snow
9:53 PM 3.9 °F - 1.0 °F 88% 29.27 in 8.0 mi Calm Calm - 0.00 in   Overcast
10:53 PM 1.0 °F - -2.0 °F 87% 29.30 in 5.0 mi Calm Calm - 0.00 in Snow Light Snow
11:44 PM 3.2 °F - -0.4 °F 85% 29.31 in 9.0 mi Calm Calm - 0.00 in   Overcast
11:53 PM 3.0 °F - -0.0 °F 87% 29.32 in 9.0 mi Calm Calm - 0.00 in   Overcast